Regional Weather Roundup
Issued by NWS

Home | Current Version | Previous Version | Text Only | Print | Product List | Glossary Off
Versions: 1 2 3 4 5 6 7 8 9 10 11 12 13 14 15 16 17 18 19 20 21 22 23 24 25 26 27 28 29 30 31 32 33 34 35 36 37 38 39 40 41 42 43 44 45 46 47 48 49 50

000
ASUS43 KFSD 030502
RWRSD

WEATHER ROUNDUP FOR SOUTH DAKOTA
NATIONAL WEATHER SERVICE SIOUX FALLS SD
1200 AM CDT SUN MAY 03 2015

NOTE: "FAIR" INDICATES FEW OR NO CLOUDS BELOW 12,000 FEET WITH NO
SIGNIFICANT WEATHER AND/OR OBSTRUCTIONS TO VISIBILITY.


SDZ001>005-009-010-012>017-030600-
NORTHWEST AND NORTH CENTRAL SOUTH DAKOTA

CITY           SKY/WX    TMP DP  RH WIND       PRES   REMARKS
BUFFALO          N/A     57  28  33 N8        29.70R
FAITH            N/A     62  26  25 N5        29.71F
MOBRIDGE       CLEAR     56  31  38 NW5       29.65R
$$

SDZ012>016-024>037-041>051-057-063-072>074-030600-
SOUTHWEST AND SOUTH CENTRAL SOUTH DAKOTA

CITY           SKY/WX    TMP DP  RH WIND       PRES   REMARKS
RAPID CTY ARPT CLEAR     52  31  44 N7        29.75S
PIERRE         PTCLDY    62  37  39 NE8       29.67S
CUSTER         PTCLDY    47  30  51 NW5       29.87S
ELLSWORTH AFB  CLEAR     60  30  31 CALM      29.74F
PHILIP         CLEAR     58  30  34 N3        29.69F
PINE RIDGE     MOCLDY    54  39  57 NE7       29.76S
WINNER         FAIR      70  35  27 SW7       29.65F
$$

SDZ004>011-016>023-039-040-030600-
NORTHEAST SOUTH DAKOTA

CITY           SKY/WX    TMP DP  RH WIND       PRES   REMARKS
ABERDEEN       PTCLDY    65  49  56 N7        29.64R
WATERTOWN      PTCLDY    65  51  60 S16       29.67S
BROOKINGS      PTCLDY    64  52  63 S17       29.71S
SISSETON         N/A     67  52  58 SW16      29.63F
$$

SDZ017-020-022-023-036>040-048>070-030600-
SOUTHEAST SOUTH DAKOTA

CITY           SKY/WX    TMP DP  RH WIND       PRES   REMARKS
SIOUX FALLS    MOCLDY    64  54  69 S12       29.71F
HURON          PTCLDY    68  52  56 S14G25    29.64S
MITCHELL       CLOUDY    68  56  65 S20       29.66F
YANKTON        CLOUDY    64  55  72 E9        29.68F
$$

ABBREVIATIONS USED IN REMARKS
   TC - TEMPERATURE IN CELSIUS
  WCI - WIND CHILL INDEX
   HX - HEAT INDEX
  VSB - VISIBILITY




USA.gov is the U.S. government's official web portal to all federal, state and local government web resources and services.